Regional Weather Roundup
Issued by NWS Upton, NY

Current Version | Previous Version | Text Only | Print | Product List | Glossary On
Versions: 1 2 3 4 5 6 7 8 9 10 11 12 13 14 15 16 17 18 19 20 21 22 23 24 25 26 27 28 29 30 31 32 33 34 35 36 37 38 39 40 41 42 43 44 45 46 47 48 49 50
488
ASUS41 KOKX 202209
RWROKX

REGIONAL WEATHER ROUNDUP
NATIONAL WEATHER SERVICE NEW YORK NY
600 PM EDT FRI OCT 20 2017

NOTE: "FAIR" INDICATES FEW OR NO CLOUDS BELOW 12,000 FEET WITH NO
SIGNIFICANT WEATHER AND/OR OBSTRUCTIONS TO VISIBILITY.

NYZ071-072-176-178-NJZ106-104-202300-
NEW YORK CITY METRO AREA

CITY           SKY/WX    TMP DP  RH WIND       PRES   REMARKS
Central Park   CLEAR     71  34  25 VRB6      30.14R
Bronx Bot Gard   N/A     70  36  28 W9        30.12S
LaGuardia APRT PTCLDY    72  39  30 NW13      30.10R
Kennedy INTL   PTCLDY    71  33  24 NW13      30.12R
Breezy Point     N/A     70 N/A N/A NW8G15      N/A
Newark/Liberty PTCLDY    73  33  23 NW9G20    30.12R
Teterboro      CLEAR     71  35  26 NW8       30.10R
$$

NYZ177-179-078>081-202300-
LONG ISLAND NEW YORK

CITY           SKY/WX    TMP DP  RH WIND       PRES   REMARKS
Jones Beach      N/A     68 N/A N/A NW7         N/A
Matinecock PT    N/A     72 N/A N/A NW12        N/A
Farmingdale    CLEAR     69  36  29 W5        30.11R
MacArthur/ISP  PTCLDY    66  39  37 NW7       30.10R
Shirley        CLEAR     67  45  45 SW3       30.10R
Mt Sinai Harb    N/A     66 N/A N/A NW5         N/A
Westhampton    CLEAR     65  40  39 NW7       30.10R
East Hampton   FAIR      61  47  58 CALM      30.08R
Montauk          N/A     66  52  60 NW6       30.09R
$$

NYZ052-065-067-202300-
HUDSON VALLEY

CITY           SKY/WX    TMP DP  RH WIND       PRES   REMARKS
White Plains   CLEAR     65  38  36 NW3       30.11R
Larchmont Harb   N/A     70 N/A N/A NW5         N/A
Croton On Huds   N/A     73 N/A N/A N2          N/A
Newburgh       CLEAR     68  41  37 CALM      30.14R
Montgomery     CLEAR     66  37  34 NW6       30.12R
Poughkeepsie   CLEAR     65  38  36 N5        30.11R
Albany         PTCLDY    64  35  34 W8        30.12R
$$

NJZ001-105-106-008-010-013-015-019>022-104-202300-
NEW JERSEY

CITY           SKY/WX    TMP DP  RH WIND       PRES   REMARKS
Newark/Liberty PTCLDY    73  33  23 NW9G20    30.12R
Teterboro      CLEAR     71  35  26 NW8       30.10R
Caldwell       CLEAR     70  39  32 W5        30.13R
Somerville     CLEAR     69  38  32 VRB6      30.12R
Linden         FAIR      70  34  26 NW9       30.13R
Perth Amboy      N/A     72 N/A N/A NW13        N/A
Sussex         CLEAR     68  35  29 CALM      30.15R
Andover          N/A     63  40  42 CALM      30.16R
Trenton        CLEAR     71  34  25 NW5       30.14R
Millville      CLEAR     67  47  48 W5        30.16R
Atlantic City  CLEAR     68  43  40 W6        30.15R
Wrightstown    CLEAR     68  35  29 W6        30.12R
Toms River       N/A     66  41  40 SW3       30.14S
Belmar         CLEAR     66  41  40 W6        30.14R
$$

PAZ047>061-062-071-202300-
EASTERN PENNSYLVANIA

CITY           SKY/WX    TMP DP  RH WIND       PRES   REMARKS
Philadelphia   PTCLDY    72  35  25 NW9       30.16R
Allentown      CLEAR     68  36  30 NW6       30.17R
Scranton       CLEAR     66  32  28 N7        30.20R
$$

CTZ002-004>006-009-010-012-RIZ004-006-007-MAZ004-011-015-202300-
SOUTHERN NEW ENGLAND
 IN CT

CITY           SKY/WX    TMP DP  RH WIND       PRES   REMARKS
Bradley INTL   PTCLDY    65  40  39 NW5       30.08R
Hartford       CLEAR     68  39  34 NW8       30.08R
Danbury        CLEAR     67  36  31 VRB3      30.13R
Wtrbury/Oxford CLEAR     64  38  38 NW6       30.12R
Norwalk Harbor   N/A     70 N/A N/A NW6         N/A
Bridgeport     CLEAR     70  34  26 NW8       30.10R
Meriden        CLEAR     66  39  37 NW10      30.09R
New Haven      CLEAR     69  37  30 NW10      30.09R
Chester        FAIR      66  37  34 NW7       30.09R
Groton         CLEAR     66  38  35 NW6       30.07R
Wilimantic     CLEAR     67  35  30 NW6       30.08R

 IN RI

CITY           SKY/WX    TMP DP  RH WIND       PRES   REMARKS
Providence     PTCLDY    67  39  35 NW8       30.06R
Block Island   CLEAR     65  47  52 NW7       30.07R
Westerly       CLEAR     67  39  35 W3        30.07R
 IN MA

CITY           SKY/WX    TMP DP  RH WIND       PRES   REMARKS
Boston         CLEAR     68  35  29 W12       30.02R
Worcester      CLEAR     62  32  32 NW7       30.08R
Westfield      CLEAR     66  36  32 N3        30.08R
Provincetown   CLEAR     61  48  62 W10       30.02R
Nantucket      CLEAR     59  54  83 W6        30.03R
$$

ANZ330-335-338-340-345-350-353-355-202300-
COASTAL MARINE OBSERVATIONS


STATION/POSITION TIME  SKY/WX   TEMP    WIND        PRES    VSBY  WAVE
                                AIR SEA DIR/SP/G                  HT/PER
                 (UTC)          (F)     (DEG/KT/KT) (MB)    (MI)  (FT/S)
NY HARB ENTRANCE 2150            68 65  270/  8/ 10 1019.0          2/ 9
20 S FIRE ISLAND 2050            67 64  280/ 10/ 12 1019.2          3/ 9
GREAT SOUTH BAY  2130            67 62  290/  8/ 10   N/A
15 E BARNEGAT LI NOT AVBL
HUDSON CANYON    2150            66 65  300/ 14/ 16 1018.8          4/ 6
KINGS POINT      2130            71 66  350/ 11/ 13 1019.9
EXECUTION ROCKS  2145            76     280/  8/ 10   N/A
WESTERN LI SOUND 2049            72     300/  6/  8   N/A           0
CENTRAL LI SOUND 2100            70     320/ 16/ 19   N/A           2
EASTERN LI SOUND NOT AVBL
ROBBINS REEF     2130            73     320/ 12/ 18 1020.1
$$


>>>>>>>>>>>>>>>>>>>>>>>>>>>> KEY <<<<<<<<<<<<<<<<<<<<<<<<<<<
>                                                          <
>     SKY/WX - Sky Condition/Present Weather               <
>     TMP    - Temperature in Fahrenheit                   <
>     DP     - Dew Point in Fahrenheit                     <
>     RH     - Relative Humidity in Percent                <
>     WIND   - Direction (from) and Speed in MPH           <
>     PRES   - Mean Sea Level Pressure (inches of Hg)      <
>     WCI    - Wind Chill Index                            <
>     VSB    - VISIBILITY IN MILES                         <
>     HX     - HEAT INDEX                                  <
>     TC     - TEMPERATURE IN CELSIUS                      <
>     VRB    - VARIABLE WIND DIRECTION                     <
>                                                          <
>>>>>>>>>>>>>>>>>>>>>>>>>>>> KEY <<<<<<<<<<<<<<<<<<<<<<<<<<<




USA.gov is the U.S. government's official web portal to all federal, state and local government web resources and services.